Regional Weather Roundup
Issued by NWS Goodland, KS

Home | Current Version | Previous Version | Text Only | Print | Product List | Glossary Off
Versions: 1 2 3 4 5 6 7 8 9 10 11 12 13 14 15 16 17 18 19 20 21 22 23 24 25 26 27 28 29 30 31 32 33 34 35 36 37 38 39 40 41 42 43 44 45 46 47 48 49 50

000
ASUS43 KGLD 011359
RWRGLD

GOODLAND FORECAST AREA HOURLY WEATHER ROUNDUP
NATIONAL WEATHER SERVICE GOODLAND KS
800 AM MDT TUE SEP 01 2015

...OFFICIAL OBSERVATIONS...

CITY           SKY/WX    TMP DP  RH WIND       PRES   REMARKS
GOODLAND KS    MOSUNNY   66  60  81 W8        30.02R
HILL CITY KS   LGT RAIN  70  62  76 SW7       29.96S
IMPERIAL NEB   MOSUNNY   66  59  78 W5        29.99S
MCCOOK NEB     MOSUNNY   70  62  76 W8        29.95S
AKRON CO       SUNNY     66  56  70 W9        30.07S
BURLINGTON CO  MOSUNNY   66  58  75 W7        30.05S
LIMON CO       MOSUNNY   58  55  90 NW5       30.13S
$$

...UNOFFICIAL OBSERVATIONS...

CITY           SKY/WX    TMP DP  RH WIND       PRES   REMARKS
COLBY KS       SUNNY     66  66 100 W6        30.01R
GOVE KS          N/A     66  32  28 MISG        N/A
LENORA KS        N/A     68  32  26 MISG        N/A
NORTON KS      SUNNY     70  55  60 S12       29.94S
SHARON SPRINGS   N/A     67  62  84 CALM        N/A
KIT CARSON CO    N/A     64  60  88 MISG        N/A
YUMA CO          N/A     60  57  89 W7          N/A
$$



USA.gov is the U.S. government's official web portal to all federal, state and local government web resources and services.